Theta_e
305 306 305 305 305 305 306 306 305 305 304 302 300 299 298 295 293 291 291 291 290 291 294 295 295 295 295 296 296 296 295 295 295 295 295 295 296 296 296 296 296 296 296 296
305 304 304 306 304 305 306 305 303 303 303 301 300 300 301 294 293 293 291 290 289 293 294 295 294 295 295 296 296 296 296 295 296 296 296 296 296 296 296 296 296 296 296 296
303 303 305 307 303 304 305 303 303 302 303 301 300 301 294 294 292 292 291 289 292 293 294 294 294 295 296 296 296 296 296 296 296 296 296 296 296 296 296 296 296 297 297 296
303 303 303 305 304 302 304 304 302 303 303 305 301 303 296 292 292 292 290 291 292 293 294 294 294 295 296 296 296 296 296 296 296 296 296 296 296 296 296 296 296 296 296 296
304 302 301 302 302 302 303 301 301 303 302 305 302 297 291 291 292 292 292 292 292 294 294 293 294 295 296 296 296 296 296 296 296 296 296 296 297 297 296 296 296 296 296 296
303 302 301 301 301 302 300 300 302 305 304 302 299 298 292 291 291 292 292 292 292 294 293 293 294 295 296 296 296 296 296 296 296 296 296 297 297 297 297 297 297 297 297 297
304 302 301 300 299 299 298 297 301 302 302 300 298 295 292 292 292 292 292 292 293 293 292 293 294 295 295 295 295 295 295 295 296 296 297 297 297 297 297 297 296 296 296 296
304 308 300 300 299 298 298 296 297 300 300 298 298 295 293 293 292 292 292 293 294 293 292 293 294 295 295 295 294 294 294 294 295 296 297 297 297 297 296 295 295 295 295 296
302 303 301 301 299 297 297 294 296 298 298 296 296 292 294 292 292 292 292 293 293 292 292 292 294 295 295 295 293 293 293 294 294 295 296 297 297 297 296 295 295 294 295 296
301 303 301 301 299 297 295 295 295 294 293 295 293 292 291 292 291 292 292 293 293 292 292 293 294 294 295 294 293 292 293 293 294 294 295 296 297 297 296 295 294 295 296 297
299 301 302 299 296 296 294 293 293 293 293 291 294 294 293 290 291 291 292 293 292 291 291 293 295 294 294 293 293 293 293 293 294 294 294 295 296 297 295 295 294 295 298 297
300 298 297 298 297 295 294 294 293 292 291 292 291 295 292 290 291 292 292 293 291 291 291 294 294 294 294 293 293 292 293 293 294 294 293 294 295 296 295 294 294 294 296 298
301 298 300 301 299 297 296 295 293 292 290 291 289 291 291 291 291 292 292 292 291 291 291 294 294 294 294 293 292 293 293 293 294 294 292 293 294 295 294 294 294 293 294 296
300 296 300 302 302 296 297 296 295 291 287 287 291 290 291 291 291 292 292 291 291 290 291 294 294 294 293 293 292 293 293 293 294 294 292 292 293 294 295 294 293 293 293 295
298 298 298 297 297 296 297 296 295 289 292 289 290 290 290 291 291 292 291 291 291 290 291 294 294 293 293 293 292 292 293 293 294 293 293 292 293 292 293 294 292 292 293 294
296 299 298 298 297 296 296 295 294 294 293 292 291 291 290 290 291 292 291 290 290 290 291 293 293 293 292 293 292 292 293 293 294 292 293 291 292 291 291 293 292 291 292 293
296 297 297 302 297 296 298 296 294 293 292 291 292 291 290 293 293 292 290 290 290 290 292 293 293 292 292 293 292 292 293 293 293 292 292 291 291 291 291 291 291 291 291 292
297 296 294 296 297 302 298 294 293 293 293 292 292 292 292 292 292 291 289 290 289 289 293 292 292 292 292 292 292 292 293 293 293 292 292 291 291 290 290 290 290 290 290 290
294 297 293 297 297 298 295 293 292 291 292 293 293 292 292 292 289 287 290 290 289 289 293 292 291 291 292 292 292 292 292 293 293 292 291 291 291 291 290 290 290 290 290 290
294 294 297 290 294 301 298 293 292 292 294 292 293 293 293 290 289 288 290 290 289 289 292 291 291 291 292 292 292 292 292 293 293 292 291 291 291 291 291 291 290 291 291 291
293 290 294 296 292 297 295 292 292 290 290 292 293 293 292 290 288 289 289 288 288 290 291 291 291 291 292 292 292 292 292 293 293 292 291 291 292 292 292 292 291 291 291 291
298 296 294 290 290 302 292 292 292 289 292 292 293 293 291 289 289 289 288 288 288 292 291 290 290 291 292 292 292 292 293 293 292 292 291 291 292 292 292 293 293 292 291 292
296 298 300 298 298 293 291 293 291 290 291 293 293 291 290 289 289 288 287 287 288 292 291 290 290 291 291 291 292 292 293 293 292 292 292 291 291 291 292 292 293 293 292 292
294 292 293 294 292 291 291 291 291 291 292 293 291 291 290 289 288 286 287 287 287 291 290 290 290 290 291 291 291 292 293 294 292 292 292 291 291 290 291 292 293 293 293 291
292 292 292 292 292 291 291 291 291 292 292 291 291 291 290 288 287 287 286 287 288 291 290 290 290 290 290 291 291 291 293 294 292 292 291 291 290 290 290 290 291 293 293 293
290 292 293 295 291 291 290 290 292 292 291 291 291 290 289 288 287 287 287 288 290 291 290 289 289 290 290 291 291 291 293 294 293 292 291 291 290 290 289 289 290 290 293 293
Wind_Speed
7 11 6 5 3 6 3 3 4 1 5 6 7 7 7 4 5 9 8 12 11 13 21 25 29 32 28 30 35 35 35 34 34 30 28 28 27 28 27 27 30 30 29 31
7 7 8 4 10 5 3 4 4 2 7 7 5 5 2 6 4 4 8 9 10 14 17 28 32 34 29 33 35 35 35 34 32 30 30 27 27 29 29 29 27 27 29 29
8 5 7 5 6 10 4 6 3 6 6 8 9 3 5 4 4 7 10 8 12 16 19 24 33 33 34 34 35 36 36 34 34 34 32 30 29 27 25 24 26 28 27 30
7 5 5 4 4 5 4 3 8 6 6 4 4 2 3 7 8 12 10 14 15 17 17 27 29 32 34 33 32 35 35 35 35 36 33 32 28 26 28 29 29 31 30 30
1 7 8 5 5 4 7 13 3 4 5 4 3 4 6 5 10 17 17 15 16 17 17 21 29 32 32 32 32 34 35 37 36 35 32 31 30 31 29 30 30 30 30 29
3 2 4 3 6 3 13 5 6 4 3 2 4 4 3 6 9 14 14 16 16 18 21 28 29 32 33 34 36 35 37 39 37 36 35 32 33 34 31 31 30 28 28 27
1 3 5 4 6 8 10 6 4 4 5 4 1 6 4 6 7 8 14 16 18 15 19 22 29 34 36 37 38 36 38 39 37 38 38 34 35 34 32 31 29 31 27 26
4 4 8 9 4 3 5 4 4 4 3 5 4 4 3 2 6 9 12 15 17 19 18 20 29 30 31 34 36 37 39 39 38 40 39 37 36 34 32 31 32 29 28 29
2 3 2 4 3 3 5 5 1 1 2 2 3 4 2 18 16 15 17 17 17 20 20 22 32 33 32 34 34 36 38 38 37 40 37 38 37 36 35 35 31 29 29 31
0 4 3 4 5 6 6 2 2 4 4 5 4 1 4 14 15 17 19 20 19 20 20 23 29 34 33 35 33 36 36 35 37 38 37 37 38 37 37 35 34 31 27 23
1 2 2 4 5 3 6 4 5 5 3 3 3 3 2 8 12 17 17 17 19 20 20 21 31 31 30 33 35 36 35 37 37 35 39 37 38 36 38 37 38 38 25 20
2 4 3 1 1 4 3 3 3 4 5 1 3 5 2 6 14 14 15 16 18 18 19 24 31 30 29 33 36 36 35 35 36 37 38 36 37 34 36 37 37 38 35 21
1 3 3 1 3 1 4 2 4 4 3 3 3 5 4 14 14 14 15 15 18 19 20 22 29 29 31 33 33 35 36 37 36 37 37 36 36 34 38 36 36 36 35 31
1 3 4 5 4 3 2 3 2 4 3 3 5 8 9 14 15 17 15 14 18 18 20 20 24 28 30 32 35 35 36 37 36 35 36 35 35 36 32 36 37 37 36 34
3 3 2 1 2 2 2 3 5 4 4 4 5 5 5 11 11 13 13 17 19 20 20 20 19 29 31 32 35 35 36 36 37 34 34 34 33 34 34 35 37 39 39 33
3 2 2 1 3 3 3 4 6 4 3 5 5 6 3 9 8 14 12 17 18 19 19 20 26 29 29 31 35 34 35 35 35 33 33 33 32 33 34 32 34 35 37 38
2 3 3 0 2 1 5 4 2 1 1 4 3 4 5 11 13 13 11 16 17 19 18 19 25 28 29 29 33 33 32 33 33 32 31 32 31 31 33 33 30 34 34 36
4 3 2 2 1 2 1 2 2 2 2 1 2 5 6 7 11 9 6 13 16 17 17 23 26 28 29 29 33 32 29 31 31 31 30 31 31 30 32 34 33 31 31 32
3 4 3 3 2 5 1 3 4 4 4 2 2 6 6 8 8 5 12 18 16 20 21 25 26 27 27 28 31 29 28 30 31 31 31 31 31 30 31 32 31 31 31 32
5 6 4 3 3 4 2 4 5 4 3 3 1 3 5 8 7 5 15 19 22 25 25 25 26 26 26 28 29 28 27 29 30 31 29 29 31 31 32 32 30 29 31 31
3 3 4 2 2 6 3 6 5 4 4 3 2 2 4 2 4 9 18 20 23 20 26 26 26 25 26 27 26 26 27 30 30 28 27 29 31 28 32 30 30 29 27 27
5 5 3 3 3 4 6 5 5 4 3 4 1 2 3 4 7 7 13 18 22 19 25 26 24 26 26 27 25 25 26 30 27 26 26 25 28 29 29 28 29 27 26 24
1 6 4 7 4 0 5 3 4 5 5 3 2 2 3 5 5 7 9 17 19 21 24 24 23 25 26 27 24 24 26 28 25 26 26 24 23 23 26 24 25 26 25 24
3 3 2 2 2 5 6 4 5 5 5 4 2 1 4 4 6 6 13 17 18 21 22 23 24 24 25 28 25 24 24 26 24 25 25 24 23 22 22 28 23 26 25 22
4 5 5 3 1 4 4 5 7 6 8 6 3 2 4 5 7 8 12 17 15 18 21 21 21 23 25 28 24 25 23 25 24 24 24 24 23 23 21 22 23 24 29 27
6 7 5 5 9 5 5 9 11 7 5 6 3 2 6 8 8 14 15 19 16 17 20 21 22 24 27 27 24 24 23 25 23 24 24 21 22 22 21 20 19 19 24 26
Wind_Direction
16 55 26 15 334 252 227 116 60 322 149 93 112 130 166 77 50 14 351 356 337 317 323 339 343 346 343 349 345 343 341 341 337 331 325 321 315 311 304 300 301 297 296 296
42 39 324 207 12 8 47 118 33 354 113 93 141 142 162 63 13 346 346 334 315 334 339 345 348 347 354 350 347 346 345 340 336 330 324 315 309 306 300 296 293 291 290 287
90 299 299 22 13 14 353 115 153 208 99 52 128 53 44 338 345 348 358 310 332 344 342 345 347 349 352 351 350 346 341 338 337 332 327 322 316 310 307 304 297 293 290 289
73 332 9 4 18 19 316 160 303 217 150 202 198 274 359 340 330 357 342 349 340 340 346 348 346 349 350 347 345 347 341 338 337 335 331 326 318 312 310 305 302 296 292 288
339 355 5 6 328 311 259 318 269 158 147 112 149 82 306 324 344 353 347 339 340 342 346 346 346 347 345 347 346 346 344 341 338 336 332 327 319 314 310 307 302 300 293 287
92 35 46 273 299 312 319 7 34 55 90 57 328 143 324 358 326 337 343 339 340 345 347 345 346 347 348 350 350 350 347 341 340 338 338 335 333 329 325 322 315 307 298 289
85 1 322 23 352 353 7 37 358 354 5 233 156 59 217 295 324 321 332 337 343 348 347 344 348 350 351 351 351 349 345 338 338 341 339 337 337 335 330 326 320 316 309 301
25 9 8 340 45 297 0 64 109 273 293 295 349 144 200 242 318 334 338 341 345 348 345 345 348 349 348 350 353 349 345 336 341 340 338 339 343 340 337 330 327 318 314 308
57 37 325 5 13 14 333 32 272 87 353 10 290 341 340 359 351 345 344 348 348 349 345 345 349 350 349 351 352 349 343 342 343 340 343 343 342 338 335 333 328 324 322 325
236 96 356 341 13 22 82 312 9 17 32 317 306 308 281 337 338 346 347 349 347 345 345 346 351 349 350 352 350 348 345 342 343 340 345 343 341 344 347 346 343 339 342 345
36 87 321 39 18 317 351 14 31 108 97 179 303 266 30 291 342 343 341 343 347 343 344 345 348 348 347 352 353 348 347 348 347 344 348 347 347 351 355 356 356 357 3 6
351 114 76 62 7 84 71 91 99 109 282 120 154 279 133 309 360 342 336 343 343 342 341 345 346 346 346 354 353 347 346 347 350 352 350 350 351 355 359 359 359 2 3 6
318 30 82 325 326 36 71 46 95 97 75 219 126 278 328 351 345 341 340 341 341 341 343 349 349 351 351 355 351 345 346 345 347 353 354 354 355 357 3 1 2 4 5 6
101 81 137 183 215 149 164 172 122 126 105 212 231 290 329 331 340 338 338 339 342 343 343 349 348 348 352 355 351 346 348 348 350 352 357 357 358 358 360 4 7 7 7 10
90 108 111 105 163 173 238 191 187 169 182 153 275 280 304 325 328 323 331 340 343 346 346 351 348 346 347 353 348 348 347 345 350 355 358 358 0 2 3 7 9 11 12 12
11 155 117 142 232 242 287 259 210 219 182 263 292 305 326 307 309 334 336 342 342 344 346 349 348 346 344 352 345 347 344 347 351 360 3 0 3 6 6 8 9 10 13 12
82 119 89 167 212 344 306 217 184 129 223 220 265 259 304 330 337 326 327 341 341 344 344 349 346 342 340 349 342 346 344 351 354 1 5 5 5 8 11 11 11 14 12 16
119 99 85 164 41 1 218 140 129 143 172 213 313 319 316 305 307 303 305 341 341 342 343 349 342 338 341 350 345 348 354 357 356 3 5 9 9 10 16 15 13 12 15 17
50 113 62 118 182 298 239 193 167 168 231 201 306 322 314 315 318 289 350 347 338 337 348 348 342 339 339 352 347 354 1 0 0 3 4 10 13 12 17 15 11 13 16 18
65 64 110 71 119 205 186 157 126 105 273 158 153 305 317 341 6 302 337 333 341 338 357 348 346 344 345 355 353 1 4 1 359 1 7 16 22 18 21 18 15 16 24 22
22 1 129 155 208 284 208 139 119 69 248 166 185 315 327 337 226 280 313 341 340 343 354 350 352 346 345 355 356 5 6 3 2 12 22 26 32 22 25 21 23 20 21 26
177 144 198 82 57 314 142 102 171 190 139 142 144 313 303 289 292 302 340 342 338 355 355 354 350 345 345 356 0 5 5 0 14 19 27 29 32 31 27 25 22 22 26 32
262 184 182 175 214 56 177 134 144 141 141 167 146 315 314 320 319 330 334 338 338 359 352 354 350 348 347 355 2 0 358 2 18 23 25 27 29 28 26 20 23 25 28 34
246 170 159 67 182 167 147 112 138 141 140 138 122 341 346 339 338 327 341 343 342 359 355 353 349 350 346 351 4 3 4 5 20 24 24 26 28 29 38 35 29 32 34 31
195 133 167 252 107 90 189 173 156 137 129 122 93 24 7 14 350 340 342 343 345 356 354 357 351 347 348 348 0 8 7 11 21 25 25 26 34 37 44 48 35 36 41 44
186 179 170 216 176 158 174 163 154 143 147 141 112 40 29 24 1 3 356 353 352 357 357 359 356 352 350 349 359 5 10 14 21 25 26 26 34 41 45 52 52 46 44 46